This is the latest recevied weather packets stored in our database for station/object DL5DI-H. If no packets are shown the sender has not sent any weather packets the latest 10 day(s).
| Time | Temp. | Humidity | Pressure | Rain* | Wind** | Luminosity | Snow |
|---|---|---|---|---|---|---|---|
| 1787885402 | 20.56° C | 89% | 1010.9 hPa | 0 mm | - | - | - |
| 1787884800 | 20.56° C | 89% | 1010.7 hPa | 0 mm | - | - | - |
| 1787884203 | 20.56° C | 89% | 1010.7 hPa | 0 mm | - | - | - |
| 1787883610 | 20.56° C | 88% | 1009.9 hPa | 0 mm | - | - | - |
| 1787883001 | 20.56° C | 88% | 1009.9 hPa | 0 mm | - | - | - |
| 1787882402 | 20.56° C | 88% | 1010 hPa | 0 mm | - | - | - |
| 1787881801 | 21.11° C | 88% | 1010.2 hPa | 0 mm | - | - | - |
| 1787881202 | 21.11° C | 88% | 1009.6 hPa | 0 mm | - | - | - |
| 1787880602 | 21.11° C | 88% | 1009.6 hPa | 0 mm | - | - | - |
| 1787880002 | 21.11° C | 88% | 1009.9 hPa | 0 mm | - | - | - |
| 1787879402 | 21.11° C | 87% | 1009.6 hPa | 0 mm | - | - | - |
| 1787878201 | 21.11° C | 87% | 1009.3 hPa | 0 mm | - | - | - |
| 1787877600 | 21.11° C | 86% | 1010 hPa | 0 mm | - | - | - |
| 1787877002 | 21.11° C | 86% | 1010 hPa | 0 mm | - | - | - |
| 1787876402 | 21.11° C | 86% | 1010.3 hPa | 0 mm | - | - | - |
| 1787875802 | 21.67° C | 85% | 1010.3 hPa | 0 mm | - | - | - |
| 1787875201 | 21.67° C | 85% | 1010.3 hPa | 0 mm | - | - | - |
| 1787874603 | 21.67° C | 85% | 1010.5 hPa | 0.25 mm | - | - | - |
| 1787874001 | 21.67° C | 83% | 1010.7 hPa | 0.51 mm | - | - | - |
| 1787873401 | 21.67° C | 83% | 1010.7 hPa | 1.02 mm | - | - | - |
| 1787872801 | 22.22° C | 81% | 1010.7 hPa | 1.52 mm | - | - | - |
| 1787872202 | 22.78° C | 78% | 1010.6 hPa | 1.52 mm | - | - | - |
| 1787871601 | 22.78° C | 78% | 1010.5 hPa | 1.27 mm | - | - | - |
| 1787871000 | 22.78° C | 79% | 1010.6 hPa | 1.27 mm | - | - | - |
| 1787870402 | 24.44° C | 74% | 1011 hPa | 0.25 mm | - | - | - |
* Rain latest hour (hover to see other rain measurements)
** Current wind speed in m/s (hover to see current wind gust speed)